Simultaneous Nadir Overpasses (SNOs) Predictions

Prediction of SNOs between GOES-15 and METOP-C Satellite Orbit:

Table of predicted SNOs for the next 14.0 days since TLE Epoch: 3/11/2023
Index Date Time (GOES-15) GOES-15 Lat,Lon METOP-C Lat,Lon Distance(km) Time Diff (sec)
1 03/11/2023 17:47:04 -0.05,-127.74 -0.89,-123.92 434.92 80
2 03/13/2023 06:03:23 0.07,-127.70 -0.10,-128.52 92.83 80
3 03/14/2023 05:45:23 0.06,-127.67 1.01,-123.52 473.10 80
4 03/15/2023 18:01:33 -0.08,-127.60 0.03,-128.07 53.77 80
5 03/18/2023 05:59:51 0.08,-127.51 0.07,-127.66 17.60 80
6 03/20/2023 18:00:41 -0.09,-127.40 -0.15,-127.22 21.37 80
7 03/23/2023 05:58:56 0.09,-127.30 0.19,-126.79 57.46 80
8 03/24/2023 18:15:07 -0.10,-127.24 0.84,-131.35 469.18 80
